Location: Rounton
(54.4000°N, 1.3500°W)
Time: 17:46:14
(UTC+00:00)

Transit 2A Rocket - Pass Details

Date: 07 December 2021
Orbit: 584 x 917 km, 66.7° (Epoch: 23 January)

Event Time Altitude Azimuth Distance (km) Brightness Sun altitude
Rises 16:15:55 0° 315° (NW) 3,565 8.6 -4.8°
Reaches altitude 10° 16:18:47 10° 305° (NW) 2,607 8.1 -5.2°
Maximum altitude 16:23:54 29° 248° (WSW) 1,568 7.7 -5.8°
Drops below altitude 10° 16:28:48 10° 190° (S) 2,479 8.3 -6.4°
Sets 16:31:28 0° 180° (S) 3,362 8.8 -6.8°
